This is the latest recevied weather packets stored in our database for station/object NK2J. If no packets are shown the sender has not sent any weather packets the latest 10 day(s).
| Time | Temp. | Humidity | Pressure | Rain* | Wind** | Luminosity | Snow |
|---|---|---|---|---|---|---|---|
| 1777950301 | 23.89° C | 35% | 1013.1 hPa | 0 mm | - | 0 W/m² | - |
| 1777949995 | 23.89° C | 34% | 1013.2 hPa | 0 mm | - | 0 W/m² | - |
| 1777949693 | 23.89° C | 33% | 1013.3 hPa | 0 mm | - | 0 W/m² | - |
| 1777949392 | 23.89° C | 34% | 1013.1 hPa | 0 mm | - | 0 W/m² | - |
| 1777949088 | 23.89° C | 33% | 1013 hPa | 0 mm | - | 0 W/m² | - |
| 1777948786 | 23.89° C | 33% | 1013 hPa | 0 mm | - | 0 W/m² | - |
| 1777948483 | 23.89° C | 33% | 1013.1 hPa | 0 mm | - | 0 W/m² | - |
| 1777948180 | 23.89° C | 33% | 1013.2 hPa | 0 mm | - | 0 W/m² | - |
| 1777947878 | 23.89° C | 33% | 1013.2 hPa | 0 mm | - | 0 W/m² | - |
| 1777947575 | 24.44° C | 34% | 1013.2 hPa | 0 mm | - | 1 W/m² | - |
| 1777947271 | 24.44° C | 33% | 1013.3 hPa | 0 mm | - | 1 W/m² | - |
| 1777946966 | 24.44° C | 35% | 1013.1 hPa | 0 mm | - | 2 W/m² | - |
| 1777946662 | 24.44° C | 35% | 1012.6 hPa | 0 mm | - | 2 W/m² | - |
| 1777946359 | 24.44° C | 34% | 1012.6 hPa | 0 mm | - | 2 W/m² | - |
| 1777946056 | 24.44° C | 35% | 1012.6 hPa | 0 mm | - | 4 W/m² | - |
| 1777945754 | 24.44° C | 36% | 1012.4 hPa | 0 mm | - | 8 W/m² | - |
| 1777945450 | 24.44° C | 37% | 1012.4 hPa | 0 mm | - | 13 W/m² | - |
| 1777945147 | 24.44° C | 39% | 1012.3 hPa | 0 mm | - | 18 W/m² | - |
| 1777944844 | 24.44° C | 42% | 1012.6 hPa | 0 mm | - | 18 W/m² | - |
| 1777944542 | 24.44° C | 37% | 1012.7 hPa | 0 mm | - | 20 W/m² | - |
| 1777944240 | 24.44° C | 37% | 1012.9 hPa | 0 mm | - | 25 W/m² | - |
| 1777943936 | 24.44° C | 37% | 1012.6 hPa | 0 mm | - | 33 W/m² | - |
| 1777943633 | 24.44° C | 37% | 1012.6 hPa | 0 mm | - | 41 W/m² | - |
| 1777943329 | 24.44° C | 38% | 1012.5 hPa | 0 mm | - | 44 W/m² | - |
| 1777943025 | 24.44° C | 37% | 1012.7 hPa | 0 mm | - | 50 W/m² | - |
* Rain latest hour (hover to see other rain measurements)
** Current wind speed in m/s (hover to see current wind gust speed)